TIME,DELAY(SENSOR),PRES,T(CTD),SAL,OXYGEN,RAWTEMP,T(OPTODE),TCPHASE,TURBIDITY,TURBIDITY_GAIN,FLUOR,BETA,CDOM,CSC,CHECK
1351140205,8893,1008.4400024414062000,6.7224001884460450,35.0886001586914060,229.3791961669922000,667.5952758789062000,6.6996078491210940,36.9407997131347660,16,3,50,84,62,15658,13632
1351140318,8893,997.2700195312500000,6.8345999717712400,35.0923004150390600,226.3979034423828000,664.1641235351562000,6.8133430480957030,37.0355911254882800,15,3,50,84,64,15658,6134
1351140431,8892,986.1199951171875000,6.9014000892639160,35.0951004028320300,224.1941070556640600,662.0150146484375000,6.8845081329345700,37.1140213012695300,16,3,50,84,64,15657,15994
1351140544,8893,975.3300170898438000,7.1282000541687010,35.0993995666503900,218.6623992919922000,655.0477294921875000,7.1148509979248050,37.2881202697753900,16,3,50,86,64,15656,9631
1351140669,8893,963.7399902343750000,7.3008999824523930,35.1043014526367200,212.1889953613281200,649.9688720703125000,7.2824058532714840,37.5597381591796900,15,3,51,86,66,15651,57102
1351140784,8892,953.2800292968750000,7.4618000984191895,35.1106986999511700,207.7774963378906200,644.7125854492188000,7.4555068016052250,37.7183990478515600,16,3,50,84,64,15654,44600
1351140911,8892,942.0399780273438000,7.6399998664855960,35.1184997558593750,202.4125061035156200,639.5817260742188000,7.6241798400878910,37.9431915283203100,15,3,50,86,64,15655,48220
1351141038,8893,930.9899902343750000,7.7934999465942380,35.1292991638183600,199.6757965087890600,634.9929199218750000,7.7747821807861330,38.0258407592773440,15,3,50,84,64,15656,21998
1351141165,8892,920.1500244140625000,7.9324002265930180,35.1279983520507800,194.2604064941406200,630.3250122070312000,7.9277420043945310,38.2753410339355500,15,3,50,88,64,15652,33022
1351141292,8894,909.8699951171875000,8.0718002319335940,35.1385993957519500,190.6403045654297000,626.1013793945312000,8.0659408569335940,38.4289207458496100,16,3,50,86,63,15653,44468
1351141464,8892,895.4299926757812000,8.3908004760742190,35.1571998596191400,184.6746978759765600,616.0322265625000000,8.3946418762207030,38.6348991394043000,15,3,50,86,63,15652,34621
1351141579,8892,884.1699829101562000,8.7220001220703120,35.1828002929687500,180.6074981689453000,606.3621215820312000,8.7093086242675780,38.7346611022949200,16,3,50,86,63,15654,17660
1351141694,8893,872.7199707031250000,8.9753999710083000,35.2113990783691400,182.4073944091797000,598.4238281250000000,8.9669113159179690,38.4752006530761700,16,3,50,84,62,15653,50068
1351141815,8893,861.0399780273438000,9.1786003112792970,35.2228012084960940,178.3589019775390600,591.7144775390625000,9.1841354370117190,38.6321296691894500,16,3,50,86,64,15654,53273
1351141937,8893,850.9799804687500000,9.3954000473022460,35.2360000610351560,174.0169067382812500,585.5753173828125000,9.3825187683105470,38.8242416381835940,15,3,50,84,62,15657,27996
1351142106,8893,836.3699951171875000,9.6490001678466800,35.2571983337402340,170.7344055175781200,577.2102050781250000,9.6522388458251950,38.9123497009277340,16,3,51,84,62,15654,60543
1351142221,8893,824.5900268554688000,9.7993001937866210,35.2739982604980500,169.9992065429687500,571.7233886718750000,9.8287925720214840,38.8710289001464840,15,3,50,84,64,15658,32340
1351142330,8893,814.1799926757812000,10.1127004623413090,35.3045997619628900,169.3401947021484400,563.1107788085938000,10.1053695678710940,38.7713508605957000,16,3,50,84,62,15656,39983
1351142464,8893,803.5399780273438000,10.3826999664306640,35.3331985473632800,168.6770019531250000,554.5797729492188000,10.3786602020263670,38.6752281188964840,15,3,50,84,62,15657,43563
1351142621,8893,790.8499755859375000,10.6812000274658200,35.3661994934082000,168.2745056152343800,544.6317138671875000,10.6965398788452150,38.5383300781250000,15,3,50,84,62,15656,5600
1351142737,8893,779.9600219726562000,10.8612003326416020,35.3885002136230500,168.7875976562500000,539.6259155273438000,10.8561697006225590,38.4178314208984400,15,3,50,83,62,15654,13063
1351142852,8893,769.4699707031250000,11.0212001800537110,35.4045982360839840,168.7994995117187500,534.6798706054688000,11.0136899948120120,38.3355293273925800,16,3,50,84,62,15654,14529
1351142979,8892,758.4899902343750000,11.2869997024536130,35.4313011169433600,167.2868957519531200,526.5537719726562000,11.2720499038696290,38.3101005554199200,15,3,50,86,62,15650,57424
1351143118,8892,747.1400146484375000,11.5439996719360350,35.4623985290527340,164.4299926757812500,517.6721801757812000,11.5538196563720700,38.3732986450195300,16,3,50,86,60,15649,16900
1351143257,8892,736.1099853515625000,11.9477996826171880,35.5200996398925800,168.2223052978515600,505.3104858398437500,11.9449596405029300,37.8961486816406250,16,3,50,85,61,15652,13839
1351143394,8892,723.8300170898438000,12.3063001632690430,35.5653991699218750,167.1230010986328000,493.1239929199219000,12.3294401168823240,37.7789115905761700,16,3,50,84,62,15652,60505
1351143497,8893,713.0800170898438000,12.6497001647949220,35.6148986816406250,168.4907989501953000,483.0288085937500000,12.6471395492553710,37.5191192626953100,16,3,50,84,60,15652,25457
1351143618,8892,700.6900024414062000,12.9083003997802730,35.6587982177734400,173.3061065673828000,474.7525939941406000,12.9070596694946290,37.0467491149902340,16,3,50,84,60,15654,62884
1351143728,8892,690.7100219726562000,13.1997995376586910,35.7022018432617200,178.5865020751953000,464.4566040039062500,13.2297801971435550,36.5227394104003900,16,3,50,84,60,15653,6858
1351143855,8894,679.4000244140625000,13.4799003601074220,35.7490005493164060,188.4161071777343800,456.2735900878906000,13.4857797622680660,35.7519607543945300,16,3,50,82,60,15652,30060
1351143982,8893,667.7700195312500000,13.7547998428344730,35.7935981750488300,193.4729003906250000,447.6069030761719000,13.7564697265625000,35.3020896911621100,15,3,50,84,60,15652,62523
1351144097,8893,657.2399902343750000,13.9137001037597660,35.8190002441406250,198.5446014404297000,442.2871093750000000,13.9224004745483400,34.9129791259765600,16,3,50,84,60,15652,6543
1351144224,8894,645.3499755859375000,14.1485004425048830,35.8545989990234400,198.7023925781250000,434.5693969726562500,14.1628303527832030,34.7871513366699200,15,3,50,83,58,15653,43563
1351144351,8892,633.5599975585938000,14.4075002670288090,35.8917007446289060,198.0009002685547000,426.8916931152344000,14.4016799926757810,34.7132606506347660,15,3,50,82,58,15654,54426
1351144478,8894,622.5499877929688000,14.5815000534057620,35.9272994995117200,197.9154052734375000,420.5733947753906000,14.5980100631713870,34.6237716674804700,16,3,50,82,58,15653,1020
1351144617,8893,611.0399780273438000,14.7666997909545900,35.9550018310546900,196.4447937011718800,415.0122070312500000,14.7706298828125000,34.6288604736328100,15,3,49,83,58,15654,36511
1351144744,8894,601.0399780273438000,14.9639997482299800,35.9891014099121100,196.7621002197265600,408.5799865722656000,14.9701004028320310,34.5142898559570300,16,3,50,83,58,15652,2709
1351144889,8892,589.5000000000000000,15.2418003082275390,36.0351982116699200,202.7220001220703000,399.2214050292969000,15.2599601745605470,34.0249900817871100,16,3,50,82,57,15650,41856
1351145014,8894,578.1900024414062000,15.5085000991821290,36.0830001831054700,206.1804962158203000,391.1257934570312500,15.5103597640991210,33.7092895507812500,14,3,50,83,58,15649,1271
1351145129,8893,567.5499877929688000,15.7446002960205080,36.1245994567871100,208.0187988281250000,383.1900939941406000,15.7555503845214840,33.4911689758300800,16,3,50,82,56,15650,64555
1351145256,8895,556.0100097656250000,15.9179000854492190,36.1568984985351560,213.0449066162109400,377.7005004882812500,15.9250001907348630,33.1356201171875000,16,3,50,84,55,15648,33474
1351145383,8894,544.9199829101562000,16.0865993499755860,36.1880989074707000,215.5200958251953000,371.5405883789062500,16.1149902343750000,32.9143791198730500,15,3,50,82,56,15649,56980
1351145510,8893,533.9199829101562000,16.2628002166748050,36.2201004028320300,217.4600067138672000,366.1748046875000000,16.2803707122802730,32.7353897094726560,16,3,50,84,56,15647,13848
1351145637,8894,522.7700195312500000,16.4745998382568360,36.2583007812500000,222.4472045898437500,359.6989135742187500,16.4798297882080080,32.3847503662109400,16,3,49,84,55,15646,28453
1351145764,8893,511.4800109863281000,16.6735992431640620,36.3003005981445300,222.0507965087890600,353.0752868652344000,16.6836700439453120,32.3127899169921900,16,3,49,82,55,15648,18666
1351145891,8892,499.9500122070312500,16.8250007629394530,36.3284988403320300,222.4266052246093800,348.1831054687500000,16.8341407775878900,32.2252006530761700,15,3,49,83,56,15648,35278
1351146006,8895,489.3200073242187500,16.9442996978759770,36.3515014648437500,225.1880035400390600,343.9108886718750000,16.9654693603515620,32.0260505676269500,16,3,50,84,54,15646,43822
1351146133,8893,477.5199890136719000,17.0547008514404300,36.3708992004394500,227.7400970458984400,340.3713073730469000,17.0742301940917970,31.8497104644775400,15,3,50,84,54,15648,43620
1351146260,8894,465.6400146484375000,17.2705001831054700,36.4163017272949200,229.7319030761718800,333.6390991210937500,17.2810001373291000,31.6591606140136720,16,3,48,83,54,15648,59057
1351146373,8893,454.8599853515625000,17.3101997375488280,36.4222984313964840,230.8123931884765600,332.3786010742187500,17.3197002410888670,31.5891494750976560,16,3,50,84,54,15646,10010
1351146489,8893,443.6199951171875000,17.3861007690429700,36.4319992065429700,231.7704925537109400,329.9129028320312500,17.3953800201416000,31.5090293884277340,16,3,50,84,53,15646,33507
1351146592,8892,433.5199890136719000,17.4601001739501950,36.4449005126953100,232.4037933349609400,326.9938964843750000,17.4849605560302730,31.4387302398681640,15,3,50,82,54,15646,38380
1351146695,8892,423.4299926757812500,17.5279998779296880,36.4616012573242200,233.0377044677734400,325.0682067871094000,17.5440502166748050,31.3821506500244140,16,3,50,84,54,15646,61471
1351146808,8893,412.5100097656250000,17.5662994384765620,36.4640007019043000,233.4483947753906200,324.0599975585937500,17.5749797821044920,31.3489093780517580,15,3,48,81,54,15646,5089
1351146935,8892,400.6499938964844000,17.6536998748779300,36.4822006225585940,233.8894958496093800,321.2278137207031000,17.6618499755859380,31.2897090911865230,15,3,48,82,53,15646,48861
1351147003,8892,394.3999938964844000,17.7077999114990230,36.4928016662597660,234.2733001708984400,319.2611999511719000,17.7221603393554700,31.2448005676269530,16,3,49,84,54,15645,18617
1351147068,8894,388.6000061035156000,17.7374000549316400,36.4987983703613300,234.5850982666015600,318.3157043457031000,17.7511501312255860,31.2169208526611330,16,3,48,84,54,15644,8376
1351147135,8893,382.7000122070312500,17.7812995910644530,36.5055999755859400,234.7749023437500000,316.9440917968750000,17.7931995391845700,31.1895904541015620,16,3,48,83,52,15644,62511
1351147212,8894,376.0299987792969000,17.8062992095947270,36.5111999511718750,235.0885925292968800,316.1657104492187500,17.8170700073242200,31.1643295288085940,16,3,48,84,54,15646,40801
1351147279,8893,370.3500061035156000,17.8341007232666000,36.5154991149902340,235.3511962890625000,315.3204956054687500,17.8429794311523440,31.1406803131103500,15,3,50,84,54,15644,23573
1351147344,8893,364.7999877929687500,17.8549995422363280,36.5189018249511700,235.4940032958984400,314.5671997070312500,17.8660697937011720,31.1235294342041000,15,3,49,85,53,15645,10160
1351147423,8894,358.2200012207031000,17.8729991912841800,36.5186996459960940,235.6983032226562500,313.8544006347656000,17.8879203796386720,31.1045894622802730,16,3,50,86,54,15646,53744
1351147488,8893,352.8999938964844000,17.9057006835937500,36.5234985351562500,235.6871948242187500,312.8929138183594000,17.9173908233642580,31.0922908782959000,16,3,50,84,54,15644,63692
1351147567,8894,346.5400085449219000,17.9493999481201170,36.5307006835937500,235.5785980224609400,311.6034851074219000,17.9568996429443360,31.0802001953125000,16,3,48,82,54,15642,40375
1351147644,8893,340.3599853515625000,17.9904003143310550,36.5382003784179700,235.2261047363281200,310.2319030761719000,17.9989395141601560,31.0783195495605470,16,3,48,82,54,15642,34625
1351147712,8893,334.9899902343750000,18.0060005187988280,36.5401992797851560,235.1851959228515600,309.6093139648437500,18.0180206298828120,31.0720596313476560,16,3,48,82,54,15642,27534
1351147789,8893,328.9200134277344000,18.0275993347167970,36.5429000854492200,235.0538940429687500,308.9372863769531000,18.0386104583740230,31.0692291259765620,15,3,48,82,53,15644,34490
1351147887,8893,320.6499938964844000,18.0771007537841800,36.5470008850097660,234.9284057617187500,307.3543090820312500,18.0870990753173830,31.0538997650146500,15,3,48,84,54,15644,27326
1351147976,8894,312.0400085449219000,18.1140003204345700,36.5523986816406250,234.3233947753906200,306.0393066406250000,18.1273899078369140,31.0652408599853500,16,3,50,85,53,15642,19687
1351148043,8892,305.3200073242187500,18.1474990844726560,36.5579986572265600,234.0372009277343800,305.0300903320312500,18.1583003997802730,31.0653800964355470,15,3,50,86,54,15644,30342
1351148108,8893,298.8500061035156000,18.1767005920410160,36.5582008361816400,233.7783050537109400,303.8876953125000000,18.1933002471923830,31.0626106262207030,15,3,48,84,53,15642,4317
1351148175,8894,292.2099914550781000,18.2280998229980470,36.5648002624511700,233.4403076171875000,302.4981994628906000,18.2358493804931640,31.0603103637695300,15,3,50,84,52,15642,45127
1351148240,8892,285.8299865722656000,18.2380008697509770,36.5615005493164060,233.4170989990234400,301.9966125488281000,18.2512092590332030,31.0546493530273440,16,3,48,84,53,15642,3180
1351148307,8892,279.3699951171875000,18.2914009094238280,36.5688018798828100,232.9347991943359400,300.3377075195312500,18.3020191192626950,31.0555000305175780,15,3,50,84,53,15642,32361
1351148372,8894,273.1799926757812500,18.3402996063232420,36.5784988403320300,232.0231018066406200,298.5505981445312500,18.3567409515380860,31.0753593444824220,15,3,50,84,54,15642,58134
1351148440,8891,266.7500000000000000,18.3619995117187500,36.5741004943847660,231.8647003173828000,297.7756042480469000,18.3804702758789060,31.0726699829101560,16,3,50,86,53,15641,51203
1351148505,8893,260.6499938964844000,18.4081001281738280,36.5766983032226560,231.0991973876953000,296.5997924804687500,18.4164600372314450,31.0938396453857420,15,3,48,85,54,15642,22604
1351148572,8893,254.3399963378906200,18.3903999328613280,36.5614013671875000,233.0155944824218800,297.2261047363281000,18.3972892761230470,31.0104808807373050,16,3,50,84,54,15639,65114
1351148637,8892,248.1600036621093800,18.3717002868652340,36.5428009033203100,236.3199005126953000,297.7911071777344000,18.3799896240234380,30.8614292144775400,16,3,50,85,52,15643,31601
1351148704,8893,241.6399993896484400,18.3834991455078120,36.5345001220703100,237.6564941406250000,297.0639038085937500,18.4022598266601560,30.7891292572021500,15,3,49,84,52,15640,1500
1351148769,8892,235.2500000000000000,18.3603992462158200,36.5197982788085940,240.1815948486328000,297.9407958984375000,18.3754100799560550,30.6835899353027340,16,3,50,83,54,15641,5983
1351148836,8892,228.5800018310547000,18.5272998809814450,36.5550003051757800,237.7122039794922000,292.8948974609375000,18.5298805236816400,30.7315292358398440,16,3,50,84,53,15643,60299
1351148901,8894,222.1900024414062500,18.5097999572753900,36.5427017211914060,237.9270019531250000,292.7864990234375000,18.5331897735595700,30.7201404571533200,15,3,50,84,53,15644,45153
1351148968,8893,215.6900024414062500,18.6655998229980470,36.5680007934570300,236.9996948242187500,289.1796875000000000,18.6435794830322270,30.7157192230224600,15,3,50,84,53,15642,7929
1351149033,8893,209.6499938964843800,18.5911998748779300,36.5297012329101560,238.2915954589843800,290.7273864746094000,18.5962104797363280,30.6761207580566400,16,3,50,85,52,15640,42273
1351149101,8893,203.5599975585937500,18.6807003021240230,36.5290985107421900,239.4450073242187500,287.2184143066406000,18.7035903930664060,30.5767002105712900,15,3,50,86,52,15640,47879
1351149178,8892,197.0599975585937500,18.7639007568359380,36.5247993469238300,240.2846984863281200,285.0137023925781000,18.7710494995117200,30.5090293884277340,16,3,52,85,54,15636,44497
1351149268,8892,190.2299957275390600,18.8129997253417970,36.5247001647949200,241.8668060302734400,282.6246032714844000,18.8441390991210940,30.4054298400878900,16,3,52,86,52,15633,33327
1351149333,8893,185.9299926757812500,18.9144992828369140,36.5367012023925800,242.9225006103515600,279.9573059082031000,18.9257297515869140,30.3230705261230470,16,3,54,88,53,15632,30201
1351149427,8893,180.2500000000000000,18.9587001800537100,36.5381011962890600,243.6461029052734400,278.6661987304687500,18.9652194976806640,30.2735099792480470,16,3,56,90,54,15630,979
1351149492,8892,176.8000030517578000,18.9992008209228500,36.5432014465332000,243.6726989746093800,277.0516967773437500,19.0146007537841800,30.2512397766113280,15,3,56,90,52,15631,11836
1351149559,8893,173.1999969482422000,19.0499992370605470,36.5442008972168000,243.9528961181640600,275.6007080078125000,19.0589694976806640,30.2199192047119140,16,3,58,88,52,15630,5246
1351149624,8892,169.5099945068359400,19.1268997192382800,36.5517997741699200,244.2984008789062500,273.2843933105469000,19.1298007965087900,30.1742191314697270,15,3,58,89,52,15628,19134
1351149691,8892,165.3899993896484400,19.1506004333496100,36.5485000610351560,245.0774993896484400,272.3505859375000000,19.1583499908447270,30.1273708343505860,16,3,60,90,52,15628,4391
1351149756,8893,161.1999969482422000,19.2175006866455080,36.5555992126464840,245.8307952880859400,270.0415039062500000,19.2289505004882800,30.0640296936035160,16,3,62,89,52,15619,8168
1351149850,8893,155.7599945068359400,19.3145008087158200,36.5690994262695300,245.9712066650390600,267.1582031250000000,19.3171005249023440,30.0206108093261720,15,3,70,90,52,15618,24861
1351149915,8892,153.0899963378906200,19.3141002655029300,36.5695991516113300,246.1307067871093800,267.0033874511719000,19.3218307495117200,30.0115394592285160,15,3,68,89,52,15620,23096
1351149982,8893,150.4299926757812500,19.3199996948242200,36.5684013366699200,246.2173004150390600,266.7702941894531000,19.3289604187011720,30.0048503875732420,16,3,70,94,52,15617,39011
1351150047,8893,147.9499969482422000,19.3407001495361330,36.5718002319335940,246.1958007812500000,266.1982116699219000,19.3464508056640620,29.9983692169189450,16,3,72,90,51,15617,29042
1351150138,8892,143.9700012207031200,19.3465995788574220,36.5713996887207000,246.4559936523437500,265.9490051269531000,19.3540706634521500,29.9835700988769530,15,3,68,92,53,15617,46729
1351150203,8893,140.3200073242187500,19.3670005798339840,36.5663986206054700,246.7991027832031200,265.2336120605469000,19.3759403228759770,29.9592704772949220,16,3,66,93,52,15616,9499
1351150270,8893,136.7599945068359400,19.3794002532959000,36.5666999816894500,246.8703002929687500,264.8434143066406000,19.3878707885742200,29.9510307312011720,15,3,66,92,52,15616,52191
1351150335,8893,133.5500030517578000,19.4164009094238280,36.5654983520507800,247.7042999267578000,263.5494079589844000,19.4274196624755860,29.8977394104003900,16,3,71,94,52,15611,34142
1351150402,8892,130.5200042724609400,19.4591007232666000,36.5690002441406250,248.4615936279297000,262.4291076660156000,19.4616603851318360,29.8500099182128900,16,3,74,94,53,15606,61748
1351150467,8893,127.8000030517578100,19.5249004364013670,36.5723991394043000,248.2698974609375000,260.2359008789062500,19.5286998748779300,29.8302993774414060,15,3,73,95,52,15608,46296
1351150535,8894,125.1900024414062500,19.5722999572753900,36.5737991333007800,248.8401031494140600,258.7969970703125000,19.5726699829101560,29.7869701385498050,15,3,77,94,52,15602,47329
1351150600,8894,122.9599990844726600,19.6133003234863280,36.5703010559082000,250.0928955078125000,257.1636047363281000,19.6225891113281250,29.7117500305175780,15,3,80,96,54,15597,62034
1351150695,8893,119.6399993896484400,19.6952991485595700,36.5693016052246100,251.1681060791015600,254.5915985107422000,19.7011909484863280,29.6324195861816400,15,3,84,96,54,15591,18518
1351150760,8892,116.7799987792968800,19.8234996795654300,36.5713005065918000,252.7725982666015600,249.8513031005859400,19.8460407257080080,29.5033397674560550,16,3,88,98,54,15588,25635
1351150827,8893,113.9100036621093800,20.0111007690429700,36.5845985412597660,253.7373962402343800,244.4165039062500000,20.0121002197265620,29.3933792114257800,16,3,94,100,52,15579,47880
1351150892,8895,111.2200012207031200,20.0785999298095700,36.5899009704589840,253.9425964355468800,242.2281951904297000,20.0789508819580080,29.3570003509521500,16,3,98,101,52,15574,1806
1351150959,8900,108.4899978637695300,20.2024002075195300,36.5773010253906250,254.9550933837890600,238.5601959228515600,20.1910190582275400,29.2679805755615230,15,3,104,103,54,15570,64488
1351151024,8896,105.9800033569336000,20.2423992156982420,36.5774002075195300,256.3836975097656000,237.2471008300781200,20.2311305999755860,29.1915702819824220,16,3,104,99,54,15567,38794
1351151091,8897,102.9899978637695300,20.3747005462646500,36.5814018249511700,257.5841064453125000,232.6293945312500000,20.3722000122070300,29.0834693908691400,15,3,110,98,53,15558,42183
1351151156,8898,100.0199966430664000,20.4822998046875000,36.5774993896484400,258.6242980957031000,229.7462005615234400,20.4602794647216800,29.0044097900390620,16,3,114,100,54,15554,28176
1351151224,8898,97.0199966430664000,20.5821990966796880,36.5736007690429700,260.1073913574219000,225.7420959472656200,20.5825901031494140,28.8934497833251950,15,3,120,100,52,15550,5893
1351151289,8897,94.1299972534179700,20.7313995361328120,36.5705986022949200,261.7932128906250000,220.9954986572265600,20.7276000976562500,28.7656307220459000,16,3,126,101,52,15542,22326
1351151356,8898,91.2399978637695300,20.8659992218017580,36.5704994201660160,263.8232116699219000,217.6905059814453000,20.8285598754882800,28.6426391601562500,16,3,127,102,52,15538,24359
1351151421,8899,88.7300033569336000,20.9269008636474600,36.5742988586425800,264.1513977050781000,214.8813018798828000,20.9143791198730470,28.5948295593261720,16,3,132,102,52,15524,60303
1351151515,8898,84.8399963378906200,21.1868000030517580,36.5735015869140600,266.0184020996094000,206.1598052978515600,21.1808395385742200,28.4129695892334000,16,3,120,103,52,15529,54992
1351151580,8898,81.9899978637695300,21.3845005035400400,36.5638008117675800,266.5769042968750000,201.2274932861328000,21.3315391540527340,28.3306694030761720,16,3,120,103,50,15524,27857
1351151647,8900,79.9100036621093800,21.6488990783691400,36.5681991577148440,267.1888122558594000,192.7958068847656200,21.5892200469970700,28.2038707733154300,15,3,118,103,52,15521,5150
1351151712,8899,78.5100021362304700,21.8959999084472660,36.6012001037597660,267.3770141601562500,183.8639068603515600,21.8622493743896500,28.0882492065429700,15,3,123,103,50,15515,1661
1351151831,8900,76.0699996948242200,22.2793006896972660,36.5954017639160160,266.3924865722656000,171.4618072509765600,22.2415103912353500,27.9774608612060550,16,3,108,104,50,15515,22931
1351151936,8897,73.2500000000000000,22.7803001403808600,36.6012992858886700,264.6496887207031000,156.3101043701172000,22.7051601409912100,27.8643398284912100,16,3,94,106,50,15514,19788
1351152001,8896,71.3000030517578100,23.2779006958007800,36.5679016113281250,262.5089111328125000,144.8218994140625000,23.0569992065429700,27.8121109008789060,15,3,90,106,50,15509,16616
1351152096,8897,69.3399963378906200,23.5645999908447270,36.5554008483886700,261.2777099609375000,128.4105987548828000,23.5601196289062500,27.6660003662109380,16,3,86,108,50,15509,47703
1351152173,8896,66.5400009155273400,23.6476001739501950,36.5477981567382800,261.6185913085937500,125.8308029174804700,23.6392707824707030,27.6217994689941400,16,3,86,108,50,15505,44707
1351152267,8897,61.9799995422363300,24.1711006164550780,36.3897018432617200,259.7745971679687500,116.2054977416992200,23.9347400665283200,27.5813407897949220,16,3,84,108,50,15498,29902